| time (UTC) | temp F | wind direction | speed knots | gust knots | rain 1hr in | rain 24hr in | rain mn in | humidity % | barometer mb |
| 20260504050517 | 64 | 315 | 1.7 | 3.5 | 0.00 | 0.00 | 0.00 | 43 | 1020.2 |
| 20260504045517 | 63 | 315 | 1.7 | 3.5 | 0.00 | 0.00 | 0.00 | 43 | 1020.2 |
| 20260504045036 | 63 | 315 | 1.7 | 3.5 | 0.00 | 0.00 | 0.00 | 42 | 1020.1 |
| 20260504044517 | 63 | 338 | 1.7 | 4.3 | 0.00 | 0.00 | 0.00 | 42 | 1020.2 |
| 20260504044016 | 63 | 315 | 0.9 | 2.6 | 0.00 | 0.00 | 0.00 | 42 | 1020.2 |
| 20260504043516 | 63 | 315 | 1.7 | 2.6 | 0.00 | 0.00 | 0.00 | 42 | 1020.2 |
| 20260504043016 | 63 | 315 | 0.9 | 1.7 | 0.00 | 0.00 | 0.00 | 43 | 1020.1 |
| 20260504042516 | 62 | 315 | 0.9 | 0.9 | 0.00 | 0.00 | 0.00 | 42 | 1020.1 |
| 20260504042016 | 62 | 315 | 0.9 | 2.6 | 0.00 | 0.00 | 0.00 | 43 | 1020.0 |
| 20260504041516 | 62 | 0.0 | 1.7 | 0.00 | 0.00 | 0.00 | 43 | 1020.0 | |
| 20260504041016 | 62 | 293 | 0.9 | 2.6 | 0.00 | 0.00 | 0.00 | 43 | 1019.9 |
| 20260504040516 | 62 | 293 | 0.9 | 3.5 | 0.00 | 0.00 | 0.00 | 43 | 1019.9 |
| 20260504040036 | 62 | 293 | 1.7 | 3.5 | 0.00 | 0.00 | 0.00 | 42 | 1019.9 |
| 20260504035516 | 62 | 293 | 2.6 | 4.3 | 0.00 | 0.00 | 0.00 | 42 | 1019.9 |
| 20260504035036 | 62 | 315 | 2.6 | 3.5 | 0.00 | 0.00 | 0.00 | 42 | 1019.8 |
| 20260504034536 | 62 | 315 | 1.7 | 2.6 | 0.00 | 0.00 | 0.00 | 42 | 1019.8 |
| 20260504034016 | 62 | 293 | 1.7 | 2.6 | 0.00 | 0.00 | 0.00 | 42 | 1019.9 |
| 20260504033537 | 62 | 315 | 1.7 | 3.5 | 0.00 | 0.00 | 0.00 | 42 | 1019.9 |
| 20260504033036 | 62 | 315 | 1.7 | 2.6 | 0.00 | 0.00 | 0.00 | 42 | 1019.9 |
| 20260504032516 | 62 | 293 | 1.7 | 2.6 | 0.00 | 0.00 | 0.00 | 41 | 1019.9 |
| 20260504032017 | 62 | 315 | 1.7 | 2.6 | 0.00 | 0.00 | 0.00 | 41 | 1019.8 |
| 20260504031517 | 63 | 293 | 1.7 | 3.5 | 0.00 | 0.00 | 0.00 | 41 | 1019.9 |
| 20260504031036 | 62 | 315 | 1.7 | 2.6 | 0.00 | 0.00 | 0.00 | 41 | 1019.9 |
| 20260504030516 | 62 | 315 | 1.7 | 3.5 | 0.00 | 0.00 | 0.00 | 41 | 1020.0 |
| 20260504030016 | 62 | 315 | 1.7 | 2.6 | 0.00 | 0.00 | 0.00 | 41 | 1019.9 |
| 20260504025516 | 62 | 293 | 1.7 | 2.6 | 0.00 | 0.00 | 0.00 | 41 | 1020.0 |
| 20260504025016 | 62 | 315 | 1.7 | 2.6 | 0.00 | 0.00 | 0.00 | 41 | 1019.9 |
| 20260504024516 | 62 | 293 | 1.7 | 3.5 | 0.00 | 0.00 | 0.00 | 41 | 1020.0 |
| 20260504024016 | 62 | 338 | 1.7 | 2.6 | 0.00 | 0.00 | 0.00 | 41 | 1020.0 |
| 20260504023516 | 62 | 315 | 1.7 | 3.5 | 0.00 | 0.00 | 0.00 | 42 | 1020.0 |
| 20260504023016 | 62 | 315 | 1.7 | 2.6 | 0.00 | 0.00 | 0.00 | 42 | 1020.0 |
| 20260504022536 | 62 | 315 | 2.6 | 3.5 | 0.00 | 0.00 | 0.00 | 42 | 1020.0 |
| 20260504022016 | 62 | 338 | 1.7 | 3.5 | 0.00 | 0.00 | 0.00 | 43 | 1020.1 |
| 20260504021516 | 62 | 315 | 2.6 | 4.3 | 0.00 | 0.00 | 0.00 | 42 | 1020.1 |
| 20260504021036 | 62 | 315 | 3.5 | 4.3 | 0.00 | 0.00 | 0.00 | 42 | 1020.1 |
| 20260504020516 | 62 | 315 | 2.6 | 3.5 | 0.00 | 0.00 | 0.00 | 42 | 1020.1 |
| 20260504020016 | 62 | 315 | 2.6 | 3.5 | 0.00 | 0.00 | 0.00 | 42 | 1020.1 |
| 20260504015516 | 62 | 315 | 2.6 | 4.3 | 0.00 | 0.00 | 0.00 | 42 | 1020.1 |
| 20260504015016 | 62 | 338 | 1.7 | 2.6 | 0.00 | 0.00 | 0.00 | 42 | 1020.1 |
| 20260504014518 | 62 | 315 | 1.7 | 3.5 | 0.00 | 0.00 | 0.00 | 42 | 1020.2 |
| 20260504014018 | 62 | 315 | 2.6 | 3.5 | 0.00 | 0.00 | 0.00 | 42 | 1020.1 |
| 20260504013538 | 62 | 315 | 2.6 | 3.5 | 0.00 | 0.00 | 0.00 | 42 | 1020.1 |
| 20260504013018 | 62 | 315 | 2.6 | 3.5 | 0.00 | 0.00 | 0.00 | 41 | 1020.2 |
| 20260504012518 | 62 | 315 | 2.6 | 3.5 | 0.00 | 0.00 | 0.00 | 41 | 1020.2 |
| 20260504012018 | 62 | 315 | 1.7 | 2.6 | 0.00 | 0.00 | 0.00 | 41 | 1020.2 |
| 20260504011518 | 62 | 315 | 1.7 | 3.5 | 0.00 | 0.00 | 0.00 | 41 | 1020.2 |
| 20260504011018 | 62 | 315 | 1.7 | 2.6 | 0.00 | 0.00 | 0.00 | 41 | 1020.2 |
| 20260504010518 | 62 | 315 | 1.7 | 3.5 | 0.00 | 0.00 | 0.00 | 41 | 1020.2 |
| 20260504010018 | 62 | 315 | 1.7 | 3.5 | 0.00 | 0.00 | 0.00 | 41 | 1020.2 |
| 20260504005518 | 62 | 293 | 1.7 | 3.5 | 0.00 | 0.00 | 0.00 | 41 | 1020.2 |
| 20260504005018 | 62 | 315 | 1.7 | 2.6 | 0.00 | 0.00 | 0.00 | 41 | 1020.3 |
| 20260504004538 | 62 | 293 | 2.6 | 4.3 | 0.00 | 0.00 | 0.00 | 41 | 1020.3 |
| 20260504004017 | 62 | 315 | 2.6 | 4.3 | 0.00 | 0.00 | 0.00 | 42 | 1020.2 |
| 20260504003518 | 62 | 293 | 2.6 | 4.3 | 0.00 | 0.00 | 0.00 | 42 | 1020.3 |
| 20260504003018 | 62 | 293 | 2.6 | 4.3 | 0.00 | 0.00 | 0.00 | 42 | 1020.2 |
| 20260504002558 | 62 | 293 | 2.6 | 4.3 | 0.00 | 0.00 | 0.00 | 43 | 1020.3 |
| 20260504002017 | 62 | 293 | 2.6 | 4.3 | 0.00 | 0.00 | 0.00 | 43 | 1020.3 |
| 20260504001518 | 62 | 293 | 2.6 | 5.2 | 0.00 | 0.00 | 0.00 | 44 | 1020.3 |
| 20260504001017 | 62 | 293 | 2.6 | 4.3 | 0.00 | 0.00 | 0.00 | 44 | 1020.3 |
| 20260504000518 | 62 | 293 | 2.6 | 5.2 | 0.00 | 0.00 | 0.00 | 44 | 1020.3 |
| 20260504000017 | 62 | 293 | 2.6 | 4.3 | 0.00 | 0.00 | 0.00 | 45 | 1020.4 |
| 20260503235518 | 61 | 293 | 2.6 | 4.3 | 0.00 | 0.00 | 0.00 | 46 | 1020.4 |
| 20260503235017 | 61 | 293 | 1.7 | 5.2 | 0.00 | 0.00 | 0.00 | 47 | 1020.4 |
| 20260503234538 | 61 | 293 | 2.6 | 4.3 | 0.00 | 0.00 | 0.00 | 49 | 1020.4 |
| 20260503234017 | 62 | 293 | 1.7 | 3.5 | 0.00 | 0.00 | 0.00 | 50 | 1020.5 |
| 20260503233518 | 62 | 293 | 2.6 | 3.5 | 0.00 | 0.00 | 0.00 | 50 | 1020.6 |
| 20260503233017 | 61 | 293 | 2.6 | 4.3 | 0.00 | 0.00 | 0.00 | 50 | 1020.6 |
| 20260503232517 | 61 | 293 | 2.6 | 4.3 | 0.00 | 0.00 | 0.00 | 50 | 1020.6 |
| 20260503232017 | 61 | 293 | 2.6 | 5.2 | 0.00 | 0.00 | 0.00 | 50 | 1020.7 |
| 20260503231518 | 61 | 293 | 2.6 | 5.2 | 0.00 | 0.00 | 0.00 | 51 | 1020.7 |
| 20260503231018 | 62 | 293 | 2.6 | 5.2 | 0.00 | 0.00 | 0.00 | 50 | 1020.8 |
| 20260503230518 | 62 | 293 | 2.6 | 4.3 | 0.00 | 0.00 | 0.00 | 52 | 1020.7 |
| 20260503230018 | 61 | 293 | 2.6 | 4.3 | 0.00 | 0.00 | 0.00 | 54 | 1020.8 |
| 20260503225518 | 61 | 293 | 1.7 | 4.3 | 0.00 | 0.00 | 0.00 | 53 | 1020.9 |
| 20260503225037 | 62 | 315 | 2.6 | 4.3 | 0.00 | 0.00 | 0.00 | 54 | 1020.9 |
| 20260503224518 | 62 | 315 | 2.6 | 3.5 | 0.00 | 0.00 | 0.00 | 54 | 1021.0 |
| 20260503224017 | 62 | 293 | 2.6 | 4.3 | 0.00 | 0.00 | 0.00 | 54 | 1020.9 |
| 20260503223517 | 62 | 293 | 2.6 | 4.3 | 0.00 | 0.00 | 0.00 | 54 | 1021.0 |
| 20260503223018 | 62 | 293 | 2.6 | 4.3 | 0.00 | 0.00 | 0.00 | 54 | 1021.0 |
| 20260503222517 | 61 | 315 | 1.7 | 3.5 | 0.00 | 0.00 | 0.00 | 55 | 1021.0 |
| 20260503222017 | 61 | 315 | 2.6 | 4.3 | 0.00 | 0.00 | 0.00 | 56 | 1020.9 |
| 20260503221557 | 61 | 315 | 1.7 | 3.5 | 0.00 | 0.00 | 0.00 | 57 | 1021.0 |
| 20260503221017 | 61 | 293 | 2.6 | 3.5 | 0.00 | 0.00 | 0.00 | 57 | 1021.0 |
| 20260503220517 | 61 | 293 | 2.6 | 4.3 | 0.00 | 0.00 | 0.00 | 60 | 1020.9 |
| 20260503220017 | 61 | 315 | 1.7 | 3.5 | 0.00 | 0.00 | 0.00 | 62 | 1021.0 |
| 20260503215537 | 61 | 293 | 1.7 | 2.6 | 0.00 | 0.00 | 0.00 | 63 | 1020.9 |
| 20260503215017 | 61 | 293 | 1.7 | 4.3 | 0.00 | 0.00 | 0.00 | 64 | 1021.0 |
| 20260503214517 | 61 | 293 | 3.5 | 6.1 | 0.00 | 0.00 | 0.00 | 64 | 1021.0 |
| 20260503214017 | 61 | 293 | 3.5 | 7.8 | 0.00 | 0.00 | 0.00 | 66 | 1021.1 |
| 20260503213517 | 61 | 293 | 4.3 | 6.1 | 0.00 | 0.00 | 0.00 | 67 | 1021.1 |
| 20260503213017 | 61 | 315 | 1.7 | 2.6 | 0.00 | 0.00 | 0.00 | 68 | 1021.1 |
| 20260503212517 | 61 | 315 | 2.6 | 4.3 | 0.00 | 0.00 | 0.00 | 69 | 1021.1 |
| 20260503212017 | 61 | 315 | 2.6 | 4.3 | 0.00 | 0.00 | 0.00 | 69 | 1021.1 |
| 20260503211517 | 61 | 293 | 3.5 | 5.2 | 0.00 | 0.00 | 0.00 | 70 | 1021.1 |
| 20260503211017 | 61 | 293 | 1.7 | 3.5 | 0.00 | 0.00 | 0.00 | 70 | 1021.1 |
| 20260503210517 | 61 | 315 | 2.6 | 5.2 | 0.00 | 0.00 | 0.00 | 70 | 1021.1 |
| 20260503210017 | 61 | 293 | 2.6 | 5.2 | 0.00 | 0.00 | 0.00 | 70 | 1021.2 |
| 20260503205537 | 61 | 293 | 1.7 | 3.5 | 0.00 | 0.00 | 0.00 | 70 | 1021.2 |
| 20260503205017 | 61 | 315 | 1.7 | 3.5 | 0.00 | 0.00 | 0.00 | 70 | 1021.2 |
| 20260503204517 | 61 | 293 | 1.7 | 5.2 | 0.00 | 0.00 | 0.00 | 70 | 1021.2 |
| 20260503204017 | 61 | 293 | 2.6 | 5.2 | 0.00 | 0.00 | 0.00 | 71 | 1021.1 |
| 20260503203537 | 61 | 293 | 2.6 | 5.2 | 0.00 | 0.00 | 0.00 | 71 | 1021.1 |
| 20260503203017 | 61 | 293 | 2.6 | 5.2 | 0.00 | 0.00 | 0.00 | 71 | 1021.1 |
| 20260503202517 | 61 | 293 | 3.5 | 7.8 | 0.00 | 0.00 | 0.00 | 70 | 1021.1 |
| 20260503202017 | 61 | 293 | 3.5 | 6.1 | 0.00 | 0.00 | 0.00 | 70 | 1021.0 |
| 20260503201537 | 61 | 315 | 3.5 | 8.7 | 0.00 | 0.00 | 0.00 | 70 | 1021.0 |
| 20260503201037 | 61 | 315 | 3.5 | 7.8 | 0.00 | 0.00 | 0.00 | 71 | 1021.0 |
| 20260503200517 | 61 | 293 | 3.5 | 7.0 | 0.00 | 0.00 | 0.00 | 71 | 1020.9 |
| 20260503200017 | 61 | 293 | 2.6 | 4.3 | 0.00 | 0.00 | 0.00 | 71 | 1020.9 |
| 20260503195517 | 61 | 293 | 4.3 | 9.6 | 0.00 | 0.00 | 0.00 | 71 | 1020.9 |
| 20260503195017 | 61 | 315 | 3.5 | 7.8 | 0.00 | 0.00 | 0.00 | 71 | 1021.0 |
| 20260503194518 | 61 | 315 | 3.5 | 5.2 | 0.00 | 0.00 | 0.00 | 70 | 1021.1 |
| 20260503194037 | 61 | 293 | 3.5 | 6.1 | 0.00 | 0.00 | 0.00 | 71 | 1021.1 |
| 20260503193517 | 61 | 293 | 1.7 | 3.5 | 0.00 | 0.00 | 0.00 | 71 | 1021.2 |
| 20260503193017 | 61 | 293 | 2.6 | 6.1 | 0.00 | 0.00 | 0.00 | 71 | 1021.1 |
| 20260503192537 | 61 | 293 | 2.6 | 7.8 | 0.00 | 0.00 | 0.00 | 71 | 1021.1 |
| 20260503192017 | 61 | 270 | 1.7 | 6.1 | 0.00 | 0.00 | 0.00 | 71 | 1021.1 |
| 20260503191517 | 61 | 270 | 2.6 | 5.2 | 0.00 | 0.00 | 0.00 | 71 | 1021.1 |
| 20260503191017 | 62 | 270 | 2.6 | 6.1 | 0.00 | 0.00 | 0.00 | 71 | 1020.9 |
| 20260503190517 | 62 | 270 | 0.9 | 3.5 | 0.00 | 0.00 | 0.00 | 70 | 1020.8 |
| 20260503190016 | 62 | 248 | 0.9 | 1.7 | 0.00 | 0.00 | 0.00 | 70 | 1020.8 |
| 20260503185516 | 61 | 0 | 0.9 | 3.5 | 0.00 | 0.00 | 0.00 | 70 | 1020.7 |
| 20260503185016 | 62 | 338 | 3.5 | 5.2 | 0.00 | 0.00 | 0.00 | 70 | 1020.7 |
| 20260503184557 | 62 | 338 | 4.3 | 7.8 | 0.00 | 0.00 | 0.00 | 70 | 1020.6 |
| 20260503184036 | 62 | 338 | 4.3 | 6.1 | 0.00 | 0.00 | 0.00 | 69 | 1020.6 |
| 20260503183516 | 62 | 0 | 3.5 | 6.1 | 0.00 | 0.00 | 0.00 | 68 | 1020.7 |
| 20260503183017 | 62 | 0 | 3.5 | 6.1 | 0.00 | 0.00 | 0.00 | 67 | 1020.6 |
| 20260503182517 | 62 | 0 | 2.6 | 7.8 | 0.00 | 0.00 | 0.00 | 67 | 1020.5 |
| 20260503182017 | 62 | 0 | 1.7 | 4.3 | 0.00 | 0.00 | 0.00 | 66 | 1020.2 |
| 20260503181516 | 62 | 315 | 1.7 | 5.2 | 0.00 | 0.00 | 0.00 | 66 | 1020.3 |
| 20260503181016 | 62 | 315 | 2.6 | 7.8 | 0.00 | 0.00 | 0.00 | 65 | 1020.3 |
| 20260503180517 | 62 | 315 | 2.6 | 5.2 | 0.00 | 0.00 | 0.00 | 65 | 1020.2 |
| 20260503180016 | 62 | 338 | 1.7 | 5.2 | 0.00 | 0.00 | 0.00 | 65 | 1020.1 |
| 20260503175517 | 63 | 315 | 3.5 | 7.8 | 0.00 | 0.00 | 0.00 | 65 | 1020.0 |
| 20260503175017 | 63 | 293 | 2.6 | 5.2 | 0.00 | 0.00 | 0.00 | 64 | 1019.9 |
| 20260503174516 | 63 | 293 | 2.6 | 4.3 | 0.00 | 0.00 | 0.00 | 63 | 1019.9 |
| 20260503174037 | 63 | 315 | 2.6 | 5.2 | 0.00 | 0.00 | 0.00 | 63 | 1020.0 |
| 20260503173517 | 63 | 293 | 3.5 | 6.1 | 0.00 | 0.00 | 0.00 | 62 | 1020.0 |
| 20260503173016 | 64 | 293 | 2.6 | 5.2 | 0.00 | 0.00 | 0.00 | 61 | 1020.1 |
| 20260503172516 | 64 | 293 | 3.5 | 6.1 | 0.00 | 0.00 | 0.00 | 61 | 1020.0 |
| 20260503172016 | 64 | 293 | 2.6 | 6.1 | 0.00 | 0.00 | 0.00 | 60 | 1020.1 |
| 20260503171517 | 64 | 293 | 2.6 | 5.2 | 0.00 | 0.00 | 0.00 | 60 | 1020.0 |
| 20260503171016 | 64 | 293 | 2.6 | 5.2 | 0.00 | 0.00 | 0.00 | 60 | 1019.9 |
| 20260503170516 | 64 | 248 | 1.7 | 4.3 | 0.00 | 0.00 | 0.00 | 60 | 1019.9 |
| 20260503160137 | 67 | 338 | 4.3 | 10.4 | 0.00 | 0.00 | 0.00 | 48 | 1019.9 |
| 20260503150516 | 68 | 23 | 4.3 | 9.6 | 0.00 | 0.00 | 0.00 | 47 | 1019.6 |
| 20260503131017 | 69 | 315 | 5.2 | 12.2 | 0.00 | 0.00 | 0.00 | 49 | 1020.0 |
| 20260503130518 | 69 | 315 | 5.2 | 15.6 | 0.00 | 0.00 | 0.00 | 51 | 1020.0 |
| 20260503110518 | 68 | 270 | 9.6 | 20.9 | 0.00 | 0.00 | 0.00 | 50 | 1020.7 |
| 20260503081517 | 66 | 270 | 5.2 | 11.3 | 0.00 | 0.00 | 0.00 | 54 | 1020.9 |
| 20260503081017 | 65 | 293 | 6.1 | 14.8 | 0.00 | 0.00 | 0.00 | 55 | 1021.0 |
| 20260503080517 | 65 | 270 | 7.0 | 15.6 | 0.00 | 0.00 | 0.00 | 55 | 1021.1 |
| 20260503072557 | 64 | 270 | 9.6 | 20.0 | 0.00 | 0.00 | 0.00 | 56 | 1021.2 |
| 20260503072037 | 64 | 270 | 7.8 | 18.2 | 0.00 | 0.00 | 0.00 | 56 | 1021.2 |
| 20260503071517 | 64 | 270 | 7.0 | 12.2 | 0.00 | 0.00 | 0.00 | 56 | 1021.2 |
| 20260503071017 | 64 | 270 | 5.2 | 14.8 | 0.00 | 0.00 | 0.00 | 56 | 1021.2 |
| 20260503070517 | 64 | 270 | 7.0 | 14.8 | 0.00 | 0.00 | 0.00 | 55 | 1021.2 |
| 20260503055017 | 63 | 225 | 6.1 | 10.4 | 0.00 | 0.00 | 0.00 | 57 | 1021.2 |
| 20260503054516 | 62 | 225 | 6.1 | 16.5 | 0.00 | 0.00 | 0.00 | 58 | 1021.2 |
| 20260503054016 | 62 | 180 | 6.1 | 11.3 | 0.00 | 0.00 | 0.00 | 58 | 1021.4 |
| 20260503053517 | 62 | 203 | 5.2 | 13.9 | 0.00 | 0.00 | 0.00 | 59 | 1021.2 |
| 20260503053016 | 62 | 248 | 5.2 | 12.2 | 0.00 | 0.00 | 0.00 | 59 | 1021.0 |
| 20260503052516 | 61 | 113 | 2.6 | 7.8 | 0.00 | 0.00 | 0.00 | 60 | 1021.2 |
| 20260503052016 | 61 | 270 | 3.5 | 9.6 | 0.00 | 0.00 | 0.00 | 61 | 1021.1 |